Weather History for Boonville, MO

Change the Weather History Date:

Saturday, September 21, 2013

  Actual Average Record
Temperature  
Mean Temperature 61 °F -  
Max Temperature 98 °F 76 °F 104 °F (2012)
Min Temperature 50 °F 53 °F 39 °F (1983)
Degree Days  
Heating Degree Days 4    
Growing Degree Days 11 (Base 50)    
Moisture  
Dew Point 47 °F    
Average Humidity 66    
Maximum Humidity 97    
Minimum Humidity 32    
Precipitation  
Precipitation 0.00 in - - ()
Sea Level Pressure  
Sea Level Pressure 29.97 in    
Wind  
Wind Speed 3 mph (NNW)    
Max Wind Speed 9 mph    
Max Gust Speed 20 mph    
Visibility 10 miles    
Events      
Averages and records for this station are not official NWS values.
T = Trace of Precipitation, MM = Missing Value Source: NWS Daily Summary

Daily Weather History Graph

Daily Weather History Graph

Search for Another Location

Airport:

Trip Planner

Search our weather history database for the weather conditions in past years. The results will help you decide how hot, cold, wet, or windy it might be!

Date:

Astronomy

Sep. 21, 2013 Rise Set
Actual Time 6:57 AM CDT 7:08 PM CDT
Civil Twilight 6:31 AM CDT 7:35 PM CDT
Nautical Twilight 5:59 AM CDT 8:06 PM CDT
Astronomical Twilight 5:28 AM CDT 8:38 PM CDT
Moon 8:21 PM CDT (9/21) 9:15 AM CDT (9/21)
Length of Visible Light 13h 04m
Length of Day
12h 11m
Waning Gibbous, 94% of the Moon is Illuminated
Sep 21
Waning Gibbous
Sep 26
Last Quarter
Oct 4
New
Oct 11
First Quarter
Oct 18
Full

Hourly Weather History & Observations

Time (CDT) Temp. Dew Point Humidity Pressure Visibility Wind Dir Wind Speed Gust Speed Precip Events Conditions
12:15 AM 57.7 °F 51.1 °F 78% 29.96 in 10.0 mi Calm Calm - N/A   Clear
12:35 AM 58.1 °F 50.7 °F 76% 29.96 in 10.0 mi Calm Calm - N/A   Clear
12:55 AM 57.9 °F 50.7 °F 77% 29.96 in 10.0 mi Calm Calm - N/A   Clear
1:15 AM 57.4 °F 50.7 °F 78% 29.96 in 10.0 mi Calm Calm - N/A   Clear
1:35 AM 57.0 °F 50.5 °F 79% 29.96 in 10.0 mi Calm Calm - N/A   Clear
1:55 AM 56.8 °F 50.5 °F 79% 29.97 in 10.0 mi Calm Calm - N/A   Clear
2:15 AM 56.7 °F 50.7 °F 80% 29.96 in 10.0 mi Calm Calm - N/A   Clear
2:35 AM 56.3 °F 50.4 °F 80% 29.96 in 10.0 mi Calm Calm - N/A   Clear
2:55 AM 55.8 °F 50.4 °F 82% 29.96 in 10.0 mi WNW 3.5 mph - N/A   Clear
3:15 AM 55.0 °F 50.2 °F 84% 29.96 in 10.0 mi NW 4.6 mph - N/A   Clear
3:35 AM 55.2 °F 50.2 °F 83% 29.96 in 10.0 mi NW 4.6 mph - N/A   Clear
3:55 AM 54.9 °F 50.0 °F 84% 29.96 in 10.0 mi NW 3.5 mph - N/A   Clear
4:15 AM 54.3 °F 50.0 °F 85% 29.96 in 10.0 mi NW 4.6 mph - N/A   Clear
4:35 AM 53.8 °F 50.0 °F 87% 29.97 in 10.0 mi NW 3.5 mph - N/A   Clear
4:55 AM 53.8 °F 49.8 °F 86% 29.98 in 10.0 mi NNW 4.6 mph - N/A   Clear
5:15 AM 53.4 °F 49.3 °F 86% 29.98 in 10.0 mi NNW 4.6 mph - N/A   Clear
5:35 AM 52.9 °F 50.0 °F 90% 29.98 in 10.0 mi NNW 4.6 mph - N/A   Clear
5:55 AM 52.3 °F 50.2 °F 92% 29.99 in 10.0 mi NNW 3.5 mph - N/A   Clear
6:15 AM 51.8 °F 50.2 °F 94% 29.99 in 10.0 mi NNW 3.5 mph - N/A   Clear
6:35 AM 51.4 °F 50.0 °F 95% 30.00 in 10.0 mi NNW 3.5 mph - N/A   Clear
6:55 AM 51.1 °F 50.0 °F 96% 30.00 in 10.0 mi NNW 3.5 mph - N/A   Clear
7:15 AM 50.9 °F 50.0 °F 97% 30.01 in 10.0 mi NNW 3.5 mph - N/A   Clear
7:35 AM 51.1 °F 50.0 °F 96% 30.01 in 10.0 mi NNW 4.6 mph - N/A   Clear
7:55 AM 52.2 °F 50.0 °F 92% 30.02 in 10.0 mi NNW 3.5 mph - N/A   Clear
8:15 AM 53.4 °F 50.4 °F 89% 30.02 in 10.0 mi North 4.6 mph - N/A   Clear
8:35 AM 55.0 °F 49.6 °F 82% 30.02 in 10.0 mi NNW 5.8 mph - N/A   Clear
8:55 AM 56.3 °F 47.8 °F 73% 30.03 in 10.0 mi NNW 3.5 mph - N/A   Clear
9:15 AM 57.4 °F 47.5 °F 70% 30.03 in 10.0 mi North 6.9 mph - N/A   Clear
9:35 AM 58.8 °F 47.8 °F 67% 30.03 in 10.0 mi North 8.1 mph - N/A   Clear
9:55 AM 60.6 °F 46.2 °F 59% 30.03 in 10.0 mi NNW 8.1 mph - N/A   Clear
10:15 AM 61.9 °F 45.0 °F 54% 30.03 in 10.0 mi North 6.9 mph - N/A   Clear
10:35 AM 63.1 °F 45.0 °F 51% 30.04 in 10.0 mi North 9.2 mph - N/A   Clear
10:55 AM 63.5 °F 44.8 °F 51% 30.04 in 10.0 mi NNW 6.9 mph - N/A   Clear
11:15 AM 63.9 °F 44.1 °F 49% 30.04 in 10.0 mi NNW 4.6 mph - N/A   Clear
11:35 AM 65.5 °F 43.7 °F 45% 30.03 in 10.0 mi NNW 6.9 mph - N/A   Clear
11:55 AM 65.7 °F 43.3 °F 44% 30.03 in 10.0 mi NNW 4.6 mph - N/A   Clear
12:15 PM 66.0 °F 43.9 °F 45% 30.03 in 10.0 mi Calm Calm - N/A   Clear
12:35 PM 67.3 °F 43.9 °F 43% 30.02 in 10.0 mi North 5.8 mph - N/A   Clear
12:55 PM 68.5 °F 43.2 °F 40% 30.01 in 10.0 mi NNW 6.9 mph 19.6 mph N/A   Clear
1:15 PM 68.9 °F 43.7 °F 40% 30.00 in 10.0 mi North 9.2 mph - N/A   Clear
1:35 PM 69.3 °F 44.1 °F 40% 30.00 in 10.0 mi North 5.8 mph - N/A   Clear
1:55 PM 69.8 °F 43.2 °F 38% 29.99 in 10.0 mi NNW 5.8 mph - N/A   Clear
2:15 PM 69.8 °F 43.0 °F 38% 29.98 in 10.0 mi NW 4.6 mph - N/A   Clear
2:35 PM 70.7 °F 42.1 °F 35% 29.98 in 10.0 mi NNW 5.8 mph - N/A   Clear
2:55 PM 71.1 °F 41.7 °F 35% 29.97 in 10.0 mi NW 4.6 mph - N/A   Clear
3:15 PM 71.2 °F 41.4 °F 34% 29.96 in 10.0 mi NNW 5.8 mph - N/A   Clear
3:35 PM 71.8 °F 41.7 °F 34% 29.95 in 10.0 mi Calm Calm - N/A   Clear
3:55 PM 72.0 °F 41.2 °F 33% 29.95 in 10.0 mi Calm Calm - N/A   Clear
4:15 PM 72.7 °F 41.2 °F 32% 29.94 in 10.0 mi North 8.1 mph - N/A   Clear
4:35 PM 72.5 °F 40.8 °F 32% 29.94 in 10.0 mi NNW 5.8 mph - N/A   Clear
4:55 PM 72.5 °F 41.7 °F 33% 29.93 in 10.0 mi North 3.5 mph - N/A   Clear
5:15 PM 72.5 °F 41.7 °F 33% 29.93 in 10.0 mi North 3.5 mph - N/A   Clear
5:35 PM 72.1 °F 41.2 °F 33% 29.93 in 10.0 mi NW 4.6 mph - N/A   Clear
5:55 PM 71.8 °F 40.5 °F 32% 29.93 in 10.0 mi Calm Calm - N/A   Clear
6:15 PM 71.4 °F 40.8 °F 33% 29.93 in 10.0 mi Calm Calm - N/A   Clear
6:35 PM 70.3 °F 43.0 °F 37% 29.93 in 10.0 mi Calm Calm - N/A   Clear
6:55 PM 67.8 °F 47.1 °F 47% 29.93 in 10.0 mi Calm Calm - N/A   Clear
7:15 PM 66.0 °F 46.2 °F 49% 29.92 in 10.0 mi Calm Calm - N/A   Clear
7:35 PM 63.7 °F 46.8 °F 54% 29.92 in 10.0 mi Calm Calm - N/A   Clear
7:55 PM 62.1 °F 48.0 °F 60% 29.93 in 10.0 mi Calm Calm - N/A   Clear
8:15 PM 59.9 °F 49.8 °F 69% 29.93 in 10.0 mi Calm Calm - N/A   Clear
8:35 PM 58.8 °F 50.0 °F 73% 29.93 in 10.0 mi Calm Calm - N/A   Clear
8:55 PM 57.9 °F 50.4 °F 76% 29.94 in 10.0 mi Calm Calm - N/A   Clear
9:15 PM 57.6 °F 49.8 °F 75% 29.94 in 10.0 mi Calm Calm - N/A   Clear
9:35 PM 56.8 °F 50.0 °F 78% 29.95 in 10.0 mi Calm Calm - N/A   Clear
9:55 PM 55.2 °F 51.4 °F 87% 29.95 in 10.0 mi Calm Calm - N/A   Clear
10:15 PM 54.7 °F 52.3 °F 92% 29.95 in 10.0 mi Calm Calm - N/A   Clear
10:35 PM 53.8 °F 52.2 °F 94% 29.95 in 10.0 mi Calm Calm - N/A   Clear
10:55 PM 53.4 °F 52.3 °F 96% 29.95 in 10.0 mi Calm Calm - N/A   Clear
11:15 PM 53.4 °F 52.5 °F 97% 29.95 in 10.0 mi Calm Calm - N/A   Clear
11:35 PM 52.9 °F 52.0 °F 97% 29.95 in 10.0 mi Calm Calm - N/A   Clear
11:55 PM 52.7 °F 51.4 °F 95% 29.96 in 10.0 mi Calm Calm - N/A   Clear